CEF4 Weather Reports


time (UTC)temp
C
wind
direction
speed
KPH
gust
KPH
rain 1hr
cm
rain 24hr
cm
rain mn
cm
humidity
%
barometer
mb
20260906231549 14 149 11.3 19.3 19.63 0.00 0.05
20260906230249 14 134 11.3 17.7 19.63 0.00 0.05
20260906224949 14 113 11.3 16.1 19.63 0.00 0.05
20260906223650 13 149 11.3 16.1 19.63 0.00 0.05
20260906222349 13 136 11.3 16.1 19.63 0.00 0.05
20260906221049 13 115 9.7 12.9 19.63 0.00 0.05
20260906215749 13 115 9.7 12.9 19.63 0.00 0.05
20260906214449 13 149 11.3 14.5 19.63 0.00 0.05
20260906213149 13 143 11.3 16.1 19.63 0.00 0.05
20260906211849 13 110 9.7 14.5 19.63 0.00 0.05
20260906210549 13 114 9.7 12.9 19.63 0.00 0.05
20260906205249 12 104 4.8 12.9 19.63 0.00 0.05
20260906203950 12 0 0.0 0.0 19.63 0.00 0.05
20260906202649 11 0 0.0 0.0 19.63 0.00 0.05
20260906201349 11 0 0.0 0.0 19.61 0.00 0.03
20260906200049 11 0 0.0 0.0 19.61 0.00 0.03
20260906194749 11 0 0.0 0.0 19.61 0.00 0.03
20260906193449 11 0 0.0 0.0 19.61 0.00 0.03
20260906192149 11 0 0.0 0.0 19.61 0.00 0.03
20260906190849 11 0 0.0 0.0 19.61 0.00 0.03
20260906185549 11 0 0.0 0.0 19.61 0.00 0.03
20260906184249 11 0 0.0 0.0 19.61 0.00 0.03
20260906182949 11 0 0.0 0.0 19.61 0.00 0.03
20260906181649 10 0 0.0 0.0 19.61 0.00 0.03
20260906180350 10 0 0.0 0.0 19.61 0.00 0.03
20260906175049 10 0 0.0 0.0 19.61 0.00 0.03
20260906173749 10 105 8.0 12.9 19.61 0.00 0.03
20260906172449 10 111 8.0 11.3 19.61 0.00 0.03
20260906171149 10 108 8.0 12.9 19.61 0.00 0.03
20260906165849 10 94 6.4 9.7 19.61 0.00 0.03
20260906164549 10 124 8.0 12.9 19.61 0.00 0.03
20260906163249 10 113 11.3 14.5 19.58 0.00 0.00
20260906160649 10 118 8.0 11.3 19.58 0.00 0.00
20260906155349 10 94 6.4 8.0 19.58 0.00 0.00
20260906154050 10 0 0.0 0.0 19.58 0.00 0.00
20260906152750 10 0 0.0 0.0 19.58 0.00 0.00
20260906151449 10 0 0.0 0.0 19.58 0.00 0.00
20260906150150 10 0 0.0 0.0 19.58 0.00 0.00
20260906144849 10 0 0.0 0.0 19.58 0.00 0.00
20260906143549 10 0 0.0 0.0 19.58 0.00 0.00
20260906142249 9 0 0.0 0.0 19.58 0.00 0.00
20260906140949 9 0 0.0 0.0 19.58 0.00 0.00
20260906135649 9 0 0.0 0.0 19.58 0.00 0.00
20260906134349 9 0 0.0 0.0 19.58 0.00 0.00
20260906133049 9 0 0.0 0.0 19.58 0.00 0.00
20260906131749 9 0 0.0 0.0 19.58 0.00 0.00
20260906130449 9 0 0.0 0.0 19.58 0.00 0.00
20260906125149 9 0 0.0 0.0 19.58 0.00 0.00
20260906123849 9 0 0.0 0.0 19.58 0.00 0.00
20260906122549 10 278 1.6 6.4 19.58 0.00 0.00
20260906121249 9 219 3.2 8.0 19.58 0.00 0.00
20260906115949 9 218 3.2 8.0 19.58 0.00 0.00
20260906114649 9 194 8.0 11.3 19.58 0.00 0.00
20260906113349 9 195 8.0 11.3 19.58 0.00 0.00
20260906112050 9 193 8.0 11.3 19.58 0.00 0.00
20260906110749 10 0 0.0 0.0 19.58 0.00 0.00
20260906105449 9 194 3.2 8.0 19.58 0.00 0.00
20260906104149 9 0 0.0 0.0 19.58 0.00 0.00
20260906102849 9 0 0.0 0.0 19.58 0.00 0.00
20260906101549 9 77 1.6 3.2 19.58 0.00 0.00
20260906100249 9 77 6.4 9.7 19.58 0.00 0.00
20260906094949 9 0 0.0 0.0 19.58 0.00 0.00
20260906093649 9 62 4.8 8.0 19.58 0.00 0.00
20260906092349 8 0 0.0 0.0 19.58 0.00 0.00
20260906091049 8 59 1.6 6.4 19.58 0.00 0.00
20260906085748 8 0 0.0 0.0 19.58 0.00 0.00
20260906084448 8 0 0.0 0.0 19.58 0.00 0.00
20260906083148 9 0 0.0 0.0 19.58 0.00 0.00
20260906081851 9 93 1.6 6.4 19.58 0.00 0.00
20260906080548 8 110 8.0 9.7 19.58 0.00 0.00
20260906075248 8 287 6.4 8.0 19.58 0.00 0.00
20260906073948 9 256 1.6 6.4 19.58 0.00 0.00
20260906072648 9 0 0.0 0.0 19.58 0.00 0.00
20260906071348 9 291 0.0 4.8 19.58 0.00 0.00
20260906070050 8 270 6.4 8.0 19.58 0.00 0.00
20260906064748 9 318 1.6 9.7 19.58 0.00 0.00
20260906063448 9 0 0.0 0.0 19.58 0.00 0.00
20260906062149 9 0 0.0 0.0 19.58 0.00 0.00
20260906060849 9 0 0.0 0.0 19.58 0.00 0.00
20260906055548 9 0 0.0 0.0 19.58 0.00 0.00
20260906054248 9 0 0.0 0.0 19.58 0.00 0.00
20260906052948 9 0 0.0 0.0 19.58 0.00 0.20
20260906051648 9 0 0.0 0.0 19.58 0.00 0.20
20260906050349 9 0 0.0 0.0 19.58 0.00 0.20
20260906045048 9 0 0.0 0.0 19.58 0.00 0.20
20260906043748 9 0 0.0 0.0 19.58 0.00 0.20
20260906042449 9 0 0.0 0.0 19.58 0.00 0.20
20260906041148 10 0 0.0 0.0 19.58 0.00 0.20
20260906035848 9 0 0.0 0.0 19.58 0.00 0.20
20260906034548 9 336 4.8 8.0 19.56 0.00 0.18
20260906033249 9 345 6.4 9.7 19.56 0.00 0.18
20260906031948 9 330 6.4 11.3 19.53 0.00 0.15
20260906025350 10 343 1.6 8.0 19.51 0.00 0.13
20260906024048 10 330 4.8 8.0 19.51 0.00 0.13
20260906022748 9 330 6.4 9.7 19.51 0.00 0.13
20260906021448 10 329 6.4 9.7 19.48 0.00 0.10
20260906020148 10 304 4.8 8.0 19.48 0.00 0.10
20260906014848 10 352 4.8 6.4 19.48 0.00 0.10
20260906013549 10 0 0.0 0.0 19.48 0.00 0.10
20260906012248 10 23 4.8 8.0 19.46 0.00 0.08
20260906010948 10 14 4.8 8.0 19.46 0.00 0.08
20260906005648 10 0 0.0 0.0 19.43 0.00 0.05
20260906004348 10 343 0.0 3.2 19.41 0.00 0.03
20260906003049 10 8 4.8 8.0 19.41 0.00 0.03
20260906001748 10 17 6.4 11.3 19.41 0.00 0.03
20260906000448 10 18 8.0 12.9 19.41 0.00 0.03
20260905235148 10 7 6.4 11.3 19.41 0.00 0.03
20260905233848 10 1 9.7 12.9 19.41 0.00 0.03
20260905232549 10 349 9.7 14.5 19.41 0.00 0.03